Location: Bauerbach
(50.4985°N, 10.3912°E)
Time: 23:36:42
(UTC+00:00)

USA 307 - Pass Details

Date: 13 January 2026
Orbit: 495 x 502 km, 54.0° (Epoch: 10 March)

Event Time Altitude Azimuth Distance (km) Brightness Sun altitude
Exits shadow 05:55:37 19° 297° (WNW) 1,258 4.0 -12.1°
Maximum altitude 05:58:23 61° 14° (NNE) 572 2.8 -11.6°
Drops below altitude 10° 06:02:12 10° 96° (E) 1,635 6.6 -11.1°
Sets 06:04:16 0° 100° (E) 2,429 8.0 -10.8°
